DW2789 Weather Reports


Display with metric or nautical units.
time (UTC)temp
F
wind
direction
speed
MPH
gust
MPH
rain 1hr
in
rain 24hr
in
rain mn
in
humidity
%
barometer
mb
20260510210935 72 261 0.0 0.0 0.00 0.00 0.00 54 1014.3
20260510205957 72 261 0.0 0.0 0.00 0.00 0.00 52 1014.3
20260510204942 71 257 0.0 0.0 0.00 0.00 0.00 52 1014.2
20260510203928 71 257 0.0 0.0 0.00 0.00 0.00 51 1013.8
20260510202934 70 257 0.0 0.0 0.00 0.00 0.00 55 1013.9
20260510201936 70 256 0.0 0.0 0.00 0.00 0.00 52 1013.9
20260510200942 70 256 0.0 0.0 0.00 0.00 0.00 55 1014.0
20260510195944 69 256 0.0 6.0 0.00 0.00 0.00 54 1014.1
20260510194930 69 256 0.0 6.0 0.00 0.00 0.00 54 1014.1
20260510193936 70 256 2.0 8.0 0.00 0.00 0.00 57 1014.2
20260510192942 70 256 1.0 6.0 0.00 0.00 0.00 55 1014.1
20260510192004 70 257 5.0 10.0 0.00 0.00 0.00 55 1013.9
20260510190929 70 257 4.0 9.0 0.00 0.00 0.00 55 1013.9
20260510185952 70 257 0.0 0.0 0.00 0.00 0.00 58 1013.6
20260510184938 70 257 3.0 9.0 0.00 0.00 0.00 53 1013.7
20260510183932 71 256 5.0 8.0 0.00 0.00 0.00 53 1014.0
20260510183003 71 257 0.0 7.0 0.00 0.00 0.00 54 1013.9
20260510181940 70 257 0.0 6.0 0.00 0.00 0.00 54 1013.8
20260510180949 70 257 1.0 5.0 0.00 0.00 0.00 55 1014.1
20260510175931 69 256 6.0 9.0 0.00 0.00 0.00 56 1014.1
20260510174933 69 256 3.0 7.0 0.00 0.00 0.00 55 1014.3
20260510173939 69 257 1.0 4.0 0.00 0.00 0.00 56 1014.0
20260510172942 69 257 1.0 4.0 0.00 0.00 0.00 55 1014.0
20260510171929 68 256 0.0 0.0 0.00 0.00 0.00 55 1013.8
20260510170935 67 257 0.0 0.0 0.00 0.00 0.00 56 1013.9
20260510165938 67 257 0.0 0.0 0.00 0.00 0.00 63 1014.1
20260510165002 66 257 0.0 4.0 0.00 0.00 0.00 60 1014.2
20260510163943 65 257 0.0 5.0 0.00 0.00 0.00 62 1014.3
20260510162930 65 256 0.0 7.0 0.00 0.00 0.00 59 1014.2
20260510161932 65 257 2.0 5.0 0.00 0.00 0.00 60 1014.4
20260510160935 64 257 0.0 0.0 0.00 0.00 0.00 58 1014.2
20260510155938 63 257 0.0 0.0 0.00 0.00 0.00 58 1014.3
20260510155002 62 256 0.0 0.0 0.00 0.00 0.00 61 1014.5
20260510153942 61 257 0.0 0.0 0.00 0.00 0.00 61 1014.7
20260510152944 60 256 0.0 0.0 0.00 0.00 0.00 65 1014.6
20260510151941 59 257 0.0 0.0 0.00 0.00 0.00 66 1014.7
20260510150942 57 256 0.0 0.0 0.00 0.00 0.00 72 1014.7
20260510145928 55 257 0.0 0.0 0.00 0.00 0.00 74 1014.6
20260510144933 54 256 0.0 0.0 0.00 0.00 0.00 79 1014.6
20260510143933 52 257 0.0 0.0 0.00 0.00 0.00 81 1014.5
20260510142938 51 257 0.0 0.0 0.00 0.00 0.00 83 1014.5
20260510141946 51 257 0.0 0.0 0.00 0.00 0.00 84 1014.4
20260510140949 50 257 0.0 0.0 0.00 0.00 0.00 83 1014.3
20260510135951 49 256 0.0 0.0 0.00 0.00 0.00 82 1014.3
20260510134932 49 256 0.0 0.0 0.00 0.00 0.00 82 1014.3
20260510133959 49 256 0.0 0.0 0.00 0.00 0.00 81 1014.0
20260510132944 48 256 0.0 0.0 0.00 0.00 0.00 80 1014.0
20260510132005 48 257 0.0 0.0 0.00 0.00 0.00 79 1014.0
20260510130947 49 256 0.0 0.0 0.00 0.00 0.00 77 1014.1
20260510125929 49 257 0.0 0.0 0.00 0.00 0.00 76 1014.1
20260510124956 49 256 0.0 0.0 0.00 0.00 0.00 76 1014.1
20260510123935 50 257 0.0 0.0 0.00 0.00 0.00 74 1014.0
20260510123009 50 257 0.0 0.0 0.00 0.00 0.00 72 1014.1
20260510122009 51 256 0.0 0.0 0.00 0.00 0.00 72 1014.0
20260510120944 51 257 0.0 0.0 0.00 0.00 0.00 71 1014.1
20260510115946 52 257 0.0 0.0 0.00 0.00 0.00 69 1014.1
20260510114945 53 257 0.0 0.0 0.00 0.00 0.00 67 1014.1
20260510113943 54 256 0.0 0.0 0.00 0.00 0.00 65 1014.1
20260510112945 55 257 0.0 0.0 0.00 0.00 0.00 63 1014.0
20260510111927 56 257 0.0 0.0 0.00 0.00 0.00 61 1014.0
20260510110935 58 257 0.0 0.0 0.00 0.00 0.00 58 1013.9
20260510105938 59 257 0.0 0.0 0.00 0.00 0.00 57 1013.9
20260510104942 58 256 1.0 5.0 0.00 0.00 0.00 56 1013.8
20260510103944 58 256 0.0 7.0 0.00 0.00 0.00 57 1013.8
20260510102932 56 256 0.0 0.0 0.00 0.00 0.00 59 1013.8
20260510101934 56 257 0.0 0.0 0.00 0.00 0.00 61 1014.0
20260510100937 55 257 0.0 0.0 0.00 0.00 0.00 63 1014.1
20260510095942 55 256 0.0 0.0 0.00 0.00 0.00 63 1014.1
20260510094933 55 256 0.0 0.0 0.00 0.00 0.00 62 1014.0
20260510093936 55 257 0.0 0.0 0.00 0.00 0.00 63 1014.1
20260510092937 55 257 0.0 0.0 0.00 0.00 0.00 62 1014.3
20260510090942 55 257 0.0 4.0 0.00 0.00 0.00 63 1014.5
20260510085941 54 257 0.0 4.0 0.00 0.00 0.00 64 1014.6
20260510084942 54 256 0.0 0.0 0.00 0.00 0.00 64 1014.7
20260510083946 54 257 0.0 0.0 0.00 0.00 0.00 63 1014.6
20260510082949 54 256 0.0 0.0 0.00 0.00 0.00 63 1014.8
20260510081936 54 257 0.0 0.0 0.00 0.00 0.00 62 1014.9
20260510080938 55 256 0.0 0.0 0.00 0.00 0.00 61 1014.9
20260510075940 55 256 0.0 0.0 0.00 0.00 0.00 60 1014.9
20260510074947 55 256 0.0 0.0 0.00 0.00 0.00 60 1014.9
20260510073932 56 256 0.0 0.0 0.00 0.00 0.00 59 1015.0
20260510072934 56 257 0.0 0.0 0.00 0.00 0.00 58 1015.0
20260510071941 57 257 0.0 0.0 0.00 0.00 0.00 57 1015.0
20260510071001 58 257 0.0 3.0 0.00 0.00 0.00 54 1014.9
20260510065929 58 257 1.0 4.0 0.00 0.00 0.00 53 1014.8
20260510064932 57 257 0.0 0.0 0.00 0.00 0.00 54 1014.9
20260510063938 57 256 0.0 0.0 0.00 0.00 0.00 55 1014.9
20260510061945 57 257 0.0 6.0 0.00 0.00 0.00 57 1015.1
20260510060944 56 256 0.0 2.0 0.00 0.00 0.00 59 1015.1
20260510055941 56 257 0.0 0.0 0.00 0.00 0.00 60 1015.2
20260510054942 56 257 0.0 0.0 0.00 0.00 0.00 61 1015.4
20260510053959 57 256 0.0 0.0 0.00 0.00 0.00 62 1015.4
20260510052946 57 257 0.0 0.0 0.00 0.00 0.00 62 1015.4
20260510051932 57 257 0.0 0.0 0.00 0.00 0.00 62 1015.6
20260510050935 58 257 0.0 0.0 0.00 0.00 0.00 62 1015.6
20260510045940 58 257 0.0 0.0 0.00 0.00 0.00 62 1015.8
20260510045005 58 256 1.0 8.0 0.00 0.00 0.00 62 1015.8
20260510043945 58 257 6.0 10.0 0.00 0.00 0.00 63 1015.9
20260510042935 57 257 0.0 2.0 0.00 0.00 0.00 63 1015.9
20260510041938 58 257 0.0 0.0 0.00 0.00 0.00 63 1016.2
20260510040941 58 257 0.0 0.0 0.00 0.00 0.00 62 1016.0
20260510035943 59 256 0.0 0.0 0.00 0.00 0.00 61 1016.0
20260510034931 60 257 0.0 0.0 0.00 0.00 0.00 59 1016.0
20260510032946 63 257 0.0 0.0 0.00 0.00 0.00 56 1015.9
20260510031956 64 256 0.0 0.0 0.00 0.00 0.00 54 1015.8
20260510030936 65 257 0.0 0.0 0.00 0.00 0.00 54 1015.8
20260510025935 67 256 0.0 0.0 0.00 0.00 0.00 53 1015.8
20260510023939 70 257 0.0 0.0 0.00 0.00 0.00 49 1015.8
20260510022939 72 256 0.0 0.0 0.00 0.00 0.00 49 1015.8
20260510021933 73 257 0.0 0.0 0.00 0.00 0.00 46 1015.9
20260510020936 74 257 0.0 0.0 0.00 0.00 0.00 44 1015.9
20260510015943 75 257 0.0 0.0 0.00 0.00 0.00 45 1016.0
20260510014946 76 257 0.0 0.0 0.00 0.00 0.00 43 1016.0
20260510014008 77 256 0.0 0.0 0.00 0.00 0.00 40 1016.1
20260510012932 77 257 0.0 0.0 0.00 0.00 0.00 39 1016.1
20260510011938 78 256 0.0 0.0 0.00 0.00 0.00 37 1016.2
20260510010939 78 256 0.0 0.0 0.00 0.00 0.00 35 1016.3
20260510010004 79 256 0.0 0.0 0.00 0.00 0.00 34 1016.5
20260510004950 79 257 0.0 0.0 0.00 0.00 0.00 32 1016.5
20260510003952 78 257 0.0 0.0 0.00 0.00 0.00 34 1016.6
20260510002938 78 257 0.0 0.0 0.00 0.00 0.00 29 1016.7
20260510001940 78 256 0.0 0.0 0.00 0.00 0.00 30 1016.7
20260510000943 78 256 0.0 0.0 0.00 0.00 0.00 32 1016.7
20260509235948 78 257 0.0 0.0 0.00 0.00 0.00 32 1016.8
20260509234947 78 256 0.0 0.0 0.00 0.00 0.00 36 1016.9
20260509233945 77 257 0.0 0.0 0.00 0.00 0.00 39 1017.0
20260509232934 76 257 0.0 7.0 0.00 0.00 0.00 36 1017.1
20260509231934 76 256 1.0 7.0 0.00 0.00 0.00 36 1017.3
20260509230939 77 257 0.0 7.0 0.00 0.00 0.00 43 1017.2
20260509225946 76 256 0.0 7.0 0.00 0.00 0.00 43 1017.3
20260509224928 76 256 1.0 7.0 0.00 0.00 0.00 43 1017.3
20260509224011 76 257 0.0 8.0 0.00 0.00 0.00 41 1017.5
20260509222932 76 257 1.0 6.0 0.00 0.00 0.00 44 1017.5
20260509222001 75 257 2.0 7.0 0.00 0.00 0.00 41 1017.6
20260509220942 76 257 1.0 5.0 0.00 0.00 0.00 45 1017.5
20260509215945 76 256 0.0 8.0 0.00 0.00 0.00 41 1017.6
20260509214948 76 257 0.0 3.0 0.00 0.00 0.00 40 1017.8
20260509213935 75 257 1.0 6.0 0.00 0.00 0.00 45 1017.9
20260509212941 75 256 1.0 5.0 0.00 0.00 0.00 40 1018.0
20260509211943 74 257 5.0 8.0 0.00 0.00 0.00 42 1018.1